If you wish to contribute or participate in the discussions about articles you are invited to join SKYbrary as a registered user

 Actions

Alice Springs Airport

From SKYbrary Wiki

YBAS
Airport
ICAO: YBAS – IATA: ASP
Summary
Name Alice Springs Airport
Region Asia and Pacific
Territory Australia AU.gif
Location , Northern Territory
Serving Alice Springs
Elevation 545.287 m
1,789 ft
1,789 ft545.287 m
Type medium airport
Coordinates 23° 48' 24.01" S, 133° 54' 7.99" E
Runways
Designator Length Width Surface ROPS
12/30 2438 m7,998.688 ft
45 m147.638 ft
ASP yes/yes
17/35 1133 m3,717.192 ft
18 m59.055 ft
ASP yes/yes


METAR
Observation YBAS 111030Z AUTO 11007KT 9999 // NCD 24/02 Q1020 RF00.0/000.0
Station Alice Springs Aerodrome
Date/Time 11 April 2019 10:30:00
Wind direction 110°
Wind speed 07 kts
Lowest cloud amount no clouds detected
Temperature 24°C
Dew point 2°C
Humidity 23%
QNH 1020 hPa
Weather condition n/a